TimeEST,TemperatureF,Dew PointF,Humidity,Sea Level PressureIn,VisibilityMPH,Wind Direction,Wind SpeedMPH,Gust SpeedMPH,PrecipitationIn,Events,Conditions,WindDirDegrees,DateUTC
12:15 AM,14.0,5.0,67,30.03,10.0,SW,13.8,18.4,N/A,,Overcast,230,2013-12-13 05:15:00
12:35 AM,14.0,5.0,67,30.03,10.0,SW,16.1,-,N/A,,Overcast,230,2013-12-13 05:35:00
12:55 AM,14.0,5.0,67,30.03,10.0,SW,17.3,23.0,N/A,,Overcast,230,2013-12-13 05:55:00
1:15 AM,14.0,6.8,73,30.02,10.0,SW,16.1,24.2,N/A,,Overcast,220,2013-12-13 06:15:00
1:35 AM,14.0,6.8,73,30.02,10.0,SW,16.1,27.6,N/A,,Overcast,230,2013-12-13 06:35:00
1:55 AM,14.0,6.8,73,30.02,10.0,SW,15.0,26.5,N/A,,Overcast,230,2013-12-13 06:55:00
2:15 AM,15.8,6.8,68,30.03,9.0,SW,17.3,23.0,N/A,,Overcast,230,2013-12-13 07:15:00
2:35 AM,15.8,6.8,68,30.03,9.0,SW,16.1,21.9,N/A,,Overcast,230,2013-12-13 07:35:00
2:55 AM,15.8,6.8,68,30.02,8.0,SW,17.3,23.0,N/A,,Overcast,230,2013-12-13 07:55:00
3:15 AM,15.8,8.6,73,30.02,9.0,SW,15.0,24.2,N/A,,Overcast,230,2013-12-13 08:15:00
3:35 AM,15.8,8.6,73,30.02,3.0,SW,13.8,20.7,N/A,,Overcast,230,2013-12-13 08:35:00
3:55 AM,15.8,8.6,73,30.02,3.0,SW,15.0,19.6,N/A,,Overcast,230,2013-12-13 08:55:00
4:15 AM,15.8,8.6,73,30.02,4.0,SW,15.0,20.7,N/A,,Overcast,230,2013-12-13 09:15:00
4:35 AM,15.8,8.6,73,30.02,4.0,WSW,16.1,-,N/A,,Overcast,240,2013-12-13 09:35:00
4:55 AM,15.8,8.6,73,30.02,3.0,SW,15.0,20.7,N/A,,Overcast,230,2013-12-13 09:55:00
5:15 AM,15.8,10.4,79,30.02,2.5,SW,13.8,-,N/A,,Overcast,230,2013-12-13 10:15:00
5:35 AM,15.8,10.4,79,30.02,3.0,WSW,12.7,-,N/A,,Overcast,240,2013-12-13 10:35:00
5:55 AM,15.8,10.4,79,30.03,1.8,WSW,15.0,-,N/A,,Overcast,240,2013-12-13 10:55:00
6:15 AM,15.8,12.2,86,30.04,2.0,SW,11.5,-,N/A,,Overcast,230,2013-12-13 11:15:00
6:35 AM,15.8,12.2,86,30.04,2.0,SW,11.5,-,N/A,,Overcast,230,2013-12-13 11:35:00
6:55 AM,15.8,12.2,86,30.04,2.5,WSW,12.7,-,N/A,,Overcast,240,2013-12-13 11:55:00
7:15 AM,15.8,12.2,86,30.05,2.0,WSW,9.2,-,N/A,,Overcast,240,2013-12-13 12:15:00
7:35 AM,15.8,12.2,86,30.06,1.2,WSW,11.5,-,N/A,,Overcast,240,2013-12-13 12:35:00
7:55 AM,15.8,12.2,86,30.06,1.5,SW,8.1,-,N/A,,Overcast,220,2013-12-13 12:55:00
8:15 AM,15.8,12.2,86,30.07,2.0,SW,8.1,-,N/A,,Overcast,230,2013-12-13 13:15:00
8:35 AM,15.8,12.2,86,30.08,2.0,SW,9.2,-,N/A,,Overcast,230,2013-12-13 13:35:00
8:55 AM,17.6,12.2,79,30.08,2.5,SW,10.4,17.3,N/A,,Overcast,230,2013-12-13 13:55:00
9:15 AM,17.6,12.2,79,30.08,2.5,SW,10.4,-,N/A,,Overcast,220,2013-12-13 14:15:00
9:35 AM,17.6,12.2,79,30.08,2.0,SW,10.4,16.1,N/A,,Overcast,220,2013-12-13 14:35:00
9:55 AM,17.6,12.2,79,30.09,1.8,SW,10.4,-,N/A,,Overcast,230,2013-12-13 14:55:00
10:15 AM,17.6,14.0,86,30.09,1.5,SW,10.4,16.1,N/A,,Overcast,230,2013-12-13 15:15:00
10:35 AM,17.6,14.0,86,30.09,2.5,SW,10.4,-,N/A,,Overcast,220,2013-12-13 15:35:00
10:55 AM,19.4,14.0,80,30.09,1.8,SW,9.2,-,N/A,,Overcast,220,2013-12-13 15:55:00
11:15 AM,19.4,15.8,86,30.09,1.8,SW,10.4,-,N/A,,Overcast,230,2013-12-13 16:15:00
11:35 AM,19.4,15.8,86,30.08,2.5,SW,10.4,-,N/A,,Overcast,230,2013-12-13 16:35:00
11:55 AM,21.2,15.8,80,30.08,2.5,SW,15.0,-,N/A,,Overcast,230,2013-12-13 16:55:00
12:15 PM,21.2,15.8,80,30.08,5.0,SW,15.0,-,N/A,,Overcast,230,2013-12-13 17:15:00
12:35 PM,21.2,15.8,80,30.08,3.0,SW,12.7,16.1,N/A,,Overcast,230,2013-12-13 17:35:00
12:55 PM,21.2,15.8,80,30.08,1.8,WSW,13.8,-,N/A,,Overcast,240,2013-12-13 17:55:00
1:15 PM,21.2,15.8,80,30.08,2.0,WSW,10.4,-,N/A,,Overcast,240,2013-12-13 18:15:00
1:35 PM,21.2,17.6,86,30.08,1.5,WSW,8.1,-,N/A,,Overcast,250,2013-12-13 18:35:00
1:55 PM,21.2,17.6,86,30.09,1.0,WSW,9.2,-,N/A,,Overcast,250,2013-12-13 18:55:00
2:15 PM,21.2,17.6,86,30.09,1.8,SW,5.8,-,N/A,,Overcast,220,2013-12-13 19:15:00
2:35 PM,21.2,17.6,86,30.09,2.5,WSW,6.9,-,N/A,,Overcast,240,2013-12-13 19:35:00
2:55 PM,21.2,15.8,80,30.10,3.0,WSW,12.7,16.1,N/A,,Overcast,240,2013-12-13 19:55:00
3:15 PM,21.2,17.6,86,30.10,5.0,WSW,10.4,-,N/A,,Overcast,240,2013-12-13 20:15:00
3:35 PM,21.2,17.6,86,30.11,4.0,SW,8.1,-,N/A,,Overcast,230,2013-12-13 20:35:00
3:55 PM,21.2,17.6,86,30.11,3.0,WSW,5.8,-,N/A,,Overcast,240,2013-12-13 20:55:00
4:15 PM,21.2,17.6,86,30.12,2.5,WSW,8.1,-,N/A,,Overcast,240,2013-12-13 21:15:00
4:35 PM,21.2,17.6,86,30.13,3.0,WSW,10.4,-,N/A,,Overcast,250,2013-12-13 21:35:00
4:55 PM,21.2,17.6,86,30.14,2.5,WSW,9.2,-,N/A,,Overcast,250,2013-12-13 21:55:00
5:15 PM,21.2,17.6,86,30.14,5.0,WSW,8.1,-,N/A,,Overcast,250,2013-12-13 22:15:00
5:35 PM,21.2,17.6,86,30.15,7.0,WSW,6.9,-,N/A,,Overcast,240,2013-12-13 22:35:00
5:55 PM,21.2,19.4,93,30.15,10.0,NNW,6.9,-,N/A,,Overcast,340,2013-12-13 22:55:00
6:15 PM,19.4,15.8,86,30.16,10.0,North,4.6,-,N/A,,Overcast,360,2013-12-13 23:15:00
6:35 PM,19.4,15.8,86,30.17,10.0,NNW,4.6,-,N/A,,Overcast,340,2013-12-13 23:35:00
6:55 PM,19.4,15.8,86,30.16,5.0,NNW,5.8,-,N/A,,Overcast,340,2013-12-13 23:55:00
7:15 PM,19.4,15.8,86,30.17,10.0,North,4.6,-,N/A,,Overcast,360,2013-12-14 00:15:00
7:35 PM,17.6,14.0,86,30.17,10.0,NNW,4.6,-,N/A,,Overcast,340,2013-12-14 00:35:00
7:55 PM,17.6,14.0,86,30.17,10.0,North,6.9,-,N/A,,Overcast,360,2013-12-14 00:55:00
8:15 PM,17.6,14.0,86,30.18,10.0,North,5.8,-,N/A,,Overcast,350,2013-12-14 01:15:00
8:35 PM,17.6,14.0,86,30.18,10.0,NNE,6.9,-,N/A,,Overcast,20,2013-12-14 01:35:00
8:55 PM,17.6,14.0,86,30.20,10.0,North,4.6,-,N/A,,Overcast,10,2013-12-14 01:55:00
9:15 PM,17.6,12.2,79,30.19,10.0,ENE,8.1,-,N/A,,Overcast,60,2013-12-14 02:15:00
9:35 PM,17.6,12.2,79,30.20,10.0,NE,6.9,-,N/A,,Overcast,50,2013-12-14 02:35:00
9:55 PM,17.6,12.2,79,30.20,10.0,NE,5.8,-,N/A,,Overcast,50,2013-12-14 02:55:00
10:15 PM,17.6,12.2,79,30.21,10.0,NNE,5.8,-,N/A,,Overcast,30,2013-12-14 03:15:00
10:35 PM,17.6,12.2,79,30.21,8.0,ENE,4.6,-,N/A,,Overcast,60,2013-12-14 03:35:00
10:55 PM,15.8,12.2,86,30.21,10.0,ENE,5.8,-,N/A,,Overcast,70,2013-12-14 03:55:00
11:15 PM,15.8,12.2,86,30.22,5.0,ENE,4.6,-,N/A,,Overcast,60,2013-12-14 04:15:00
11:35 PM,15.8,12.2,86,30.23,7.0,NE,4.6,-,N/A,,Overcast,50,2013-12-14 04:35:00
11:55 PM,15.8,12.2,86,30.22,5.0,NE,8.1,-,N/A,,Overcast,50,2013-12-14 04:55:00